Location: Eymir
(36.7333°N, 29.7833°E)
Time: 15:08:37
(UTC+00:00)

NOAA 12 - Visible Passes

Search period start: 19 April 2026 00:00
Search period end: 29 April 2026 00:00
Orbit: 793 x 812 km, 98.6° (Epoch: 19 April)

Date Brightness Start Highest point End Pass type
(mag) Time Alt. Az. Time Alt. Az. Time Alt. Az.
19 Apr 5.6 02:28:39 10° NNE 02:33:32 38° E 02:38:21 10° SSE visible
20 Apr 6.6 02:03:34 10° NE 02:07:31 21° E 02:11:26 10° SE visible
21 Apr 7.1 01:39:45 10° ENE 01:41:24 11° E 01:43:02 10° ESE visible
22 Apr 4.7 02:50:34 10° NNE 02:55:47 63° ESE 03:00:56 10° S visible
23 Apr 5.8 02:25:04 10° NNE 02:29:50 35° E 02:34:34 10° SSE visible
24 Apr 6.7 02:00:04 10° NE 02:03:48 20° E 02:07:31 10° SE visible
25 Apr 7.2 01:37:02 10° E 01:37:41 10° E 01:38:19 10° E visible
26 Apr 4.8 02:46:55 10° NNE 02:52:06 58° E 02:57:13 10° S visible
27 Apr 5.9 02:21:28 10° NE 02:26:09 32° E 02:30:46 10° SSE visible
28 Apr 6.7 01:56:35 10° NE 02:00:06 18° E 02:03:35 10° SE visible
